シューメーカー第4彗星

199P/Shoemaker 4 (2009)

English version
Home page
Total 6,336 html files since Dec. 4, 1995
Updated on September 28, 2008

---------------------------------------------------------------------

・ プロフィール

符号 199P/2008 G2
検出日 2008年4月10日
検出光度 18.6等
検出者 Catalina Sky Survey

・ 写真集

・ 軌道要素

Epoch 2009 Mar. 30.0 TT = JDT 2454920.5
T 2009 Apr.  9.81934 TT                                 MPC
q   2.9353518            (2000.0)            P               Q
n   0.06762254     Peri.  191.92261     +0.23767364     +0.87666492
a   5.9668032      Node    92.94836     -0.85322884     +0.39423435
e   0.5080528      Incl.   24.76190     -0.46423248     -0.27574971
P  14.58

・ 星図

・ 光度変化

        m1 =   7.5 + 5 logΔ + 15.0 log r           [    ,-249]  (              〜2008年 8月 3日)
        m1 = -16.5 + 5 logΔ + 60   log r(t + 300)  [-249, -84]  (2008年 8月 3日〜2009年 1月15日)
        m1 =   7.5 + 5 logΔ + 15.0 log r           [ -84,    ]  (2009年 1月15日〜              )

        ※ 灰色の曲線は、m1 = 7.5 + 5 logΔ + 15.0 log r の光度曲線です。

---------------------------------------------------------------------

軌道要素はM.P.E.C. 2008-H20に掲載されたものです。
星図はステラナビゲータ Ver.8 (アストロアーツ) で作成したものです。
光度グラフはComet for Windowsで作成したものです。

---------------------------------------------------------------------

Copyright(C) 1995-2008 Seiichi Yoshida (comet@aerith.net). All rights reserved.